STARLINK-32344, 61719

Orbit data source: Space-Track

STARLINK-32344, 61719 is a payload satellite owned by SpaceX/Seattle (US) in LEO that was launched on Wed, 30 Oct 2024 UTC via an FALCON 9 launch vehicle from the Air Force Eastern Test Range (AFETR). Payload-class satellites include a variety of spacecraft equipped with specific instruments for various scientific and technological missions. These include communications satellites like Starlink; space stations such as the ISS; scientific satellites like the Hubble; Earth observation satellites from companies like Planet Labs, Umbra, and HawkEye 360; GPS; miniature CubeSats for education and research; and military/defense satellites.

Loading next visibility...
Identifier
61719, 2024-196N
Orbit
LEO
Country
Flag of USUS
Related business
Manufacturer
SpaceX/Seattle
Mission
Operational Commercial Communications
Bus & Motor
STARLINK V2M, Unknown motor
Mass
730 kg wet, ~700 kg dry
Launch date (UTC)
2024-10-30 (2 years ago)
Launch vehicle
FALCON 9
Launch site
Air Force Eastern Test Range (AFETR)
Object type
Payload
Rocket body
Debris
Shape & HBR
Box + 2 Pan, 17.7 m
Radar Cross Section
33.884 m², Large (>1 m²)

Expand to show TLE details & history
Last TLE update: 1 day ago

TLE from 1 day ago
0 STARLINK-32344
1 61719U 24196N   26264.30553829  .00000744  00000-0  33149-4 0  9990
2 61719  53.1609 270.0756 0001304  88.1098 272.0054 15.34392441107148
Epoch: 2026-09-21T07:19Z
TLE epoch observation values (Epoch: 2026-09-21T07:19:58.508Z)
Latitude
-0.00001°
Longitude
159.89454°
Altitude
463.596 km
Speed
7.636 km/s
True Right ascension
18h 00m 18s
True Declination
0° 00' 00"
Sunlit
Object was in daylight at epoch
Visualization orbit readout
Latitude
Unknown
Longitude
Unknown
Altitude
Unknown
Speed
Unknown
Apparent Right ascension
Unknown
Apparent Declination
Unknown
Sunlit
N/A
Visualization observer readout
Local Sidereal Time
01:13:32
Azimuth
Unknown
Elevation
Unknown
Doppler factor
Unknown
Orbital elements
Apogee altitude
463.875 km
Perigee altitude
462.09 km
Semi-major axis
6,841.119 km
Eccentricity
0.00013
Inclination
53.1609°
RAAN
270.0756°
Arg. of periapsis
88.1098°
True anomaly
271.99047°
Mean anomaly
272.0054°
Eccentric anomaly
271.99793°
Mean motion
3.83577 °/min
Orbital period
93.85 mins
BSTAR
0.000033149
Loading maneuver chart data...
Computing Atmospheric mass density...
Loading historical data...
Loading historical data...
Loading historical data...
Loading historical data...
Loading historical data...
Loading historical data...
Loading historical data...

Documentation

Showing up to 5 results
|